User: anonymous   Login
Location: Ch�teau-Arnoux
(44.0814°N, 6.0027°E)
Time: 20:21:44
(UTC+00:00)
Language:

Helios 1A Rocket - Orbit

View from above orbital plane
View from above orbital plane
View from above satellite
View from above satellite

Ground track
Ground track

The orbit data is extracted from the following two-line orbital elements,

1 23608U 95033D   20023.57116201 -.00000192 +00000-0 -10727-4 0  9994
2 23608 098.3230 025.4717 0016901 004.5789 355.5582 14.97190374329611
Epoch (UTC): 23 January 2020 13:42:28
Eccentricity: 0.0016901
inclination: 98.3230°
perigee height: 564 km
apogee height: 587 km
right ascension of ascending node: 25.4717°
argument of perigee: 4.5789°
revolutions per day: 14.97190374
mean anomaly at epoch: 355.5582°
orbit number at epoch: 32961

The dashed part of the orbit path shows where the satellite is in the earth's shadow,  

DLR